SCP
0 0 0 0 0 0 0 0 0 0 0 0 0 0 0 0 0 0 0 0 0 0 0 0 0 0 0 0 0 0 0 0 0 0 0 0 0 0 0 0 0 0 0 0
0 0 0 0 0 0 0 0 0 0 0 0 0 0 0 0 0 0 0 0 0 0 0 0 0 0 0 0 0 0 0 0 0 0 0 0 0 0 0 0 0 0 0 0
0 0 0 0 0 0 0 0 0 0 0 0 0 0 0 0 0 0 0 0 0 0 0 0 0 0 0 0 0 0 0 0 0 0 0 0 0 0 0 0 0 0 0 0
0 0 0 0 0 0 0 0 0 0 0 0 0 0 0 0 0 0 0 0 0 0 0 0 0 0 0 0 0 0 0 0 0 0 0 0 0 0 0 0 0 0 0 0
0 0 0 0 0 0 0 0 0 0 0 0 0 0 -0 0 0 0 0 0 0 0 0 0 0 0 0 0 0 0 0 0 0 0 0 0 0 0 0 0 0 0 0 0
0 0 0 0 0 0 0 0 0 0 0 0 0 0 -0 0 0 0 0 0 0 0 0 0 0 0 0 0 0 0 0 0 0 0 0 0 0 0 0 0 0 0 0 0
0 0 0 0 0 0 0 0 0 0 0 0 0 0 0 0 0 0 0 0 0 0 0 0 0 0 0 0 0 0 0 0 0 0 0 0 0 0 0 0 0 0 0 0
0 0 0 0 0 0 0 0 0 0 0 0 0 0 0 0 0 0 0 0 0 0 0 0 0 0 0 0 0 0 0 0 0 0 0 0 0 0 0 0 0 0 0 0
0 0 0 0 0 0 0 0 0 0 0 0 0 0 0 0 0 0 0 0 0 0 0 0 0 0 0 0 0 0 0 0 0 0 0 0 0 0 0 0 0 0 0 0
0 0 0 0 0 0 0 0 0 0 0 0 0 0 0 0 -0 0 0 0 0 0 0 0 0 0 0 0 0 0 0 0 0 0 0 0 0 0 0 0 0 0 0 0
0 0 0 0 0 0 0 0 0 0 0 0 0 0 0 0 0 0 0 0 0 0 0 0 0 0 0 0 0 0 0 0 0 0 0 0 0 0 0 0 0 0 0 0
0 0 0 0 0 0 0 0 0 0 0 0 0 0 0 0 0 0 0 0 0 0 0 0 0 0 0 0 0 0 0 0 0 0 0 0 0 0 0 0 0 0 0 0
0 0 0 0 0 0 0 0 0 0 0 0 0 0 0 0 0 0 0 0 0 0 0 0 0 0 0 0 0 0 0 0 0 0 0 0 0 0 0 0 0 0 0 0
0 0 0 0 0 0 0 0 0 0 0 0 0 0 0 0 0 0 0 0 0 0 0 0 0 0 0 0 0 0 0 0 0 0 0 0 0 0 0 0 0 0 0 0
0 0 0 0 0 0 0 0 0 0 0 0 0 0 0 0 0 0 0 0 0 0 0 0 0 0 0 0 0 0 0 0 0 0 0 0 0 0 0 0 0 0 0 0
0 0 0 0 0 0 0 0 0 0 0 0 0 0 0 0 0 0 0 0 0 0 0 0 0 0 0 0 0 0 0 0 0 0 0 0 0 0 0 0 0 0 0 0
0 0 0 0 0 0 0 0 0 0 0 0 0 -0 0 0 0 0 0 0 0 0 0 0 0 0 0 0 0 0 0 0 0 0 0 0 0 0 0 0 0 0 0 0
0 0 0 0 0 0 0 0 0 0 0 0 0 0 0 0 0 0 0 0 0 0 0 0 0 0 0 0 0 0 0 0 0 0 0 0 0 0 0 0 0 0 0 0
0 0 0 0 0 0 0 0 0 0 0 0 0 0 0 0 0 0 0 0 0 0 0 0 0 0 0 0 0 0 0 0 0 0 0 0 0 0 0 0 0 0 0 0
0 0 0 0 0 0 0 0 0 0 0 0 0 0 0 0 0 0 0 0 0 0 0 0 0 0 0 0 0 0 0 0 0 0 0 0 0 0 0 0 0 0 0 0
0 0 0 0 0 0 0 0 0 0 0 0 0 0 0 0 0 0 0 0 0 0 0 0 0 0 0 0 0 0 0 0 0 0 0 0 0 0 0 0 0 0 0 0
0 0 0 0 0 0 0 0 0 0 0 0 0 0 0 0 0 0 0 0 0 0 0 0 0 0 0 0 0 0 0 0 0 0 0 0 0 0 0 0 0 0 0 0
-0 0 0 0 0 0 0 0 0 0 0 0 0 0 0 0 0 0 0 0 0 0 0 0 0 0 0 0 0 0 0 0 0 0 0 0 0 0 0 0 0 0 0 0
-0 -0 -0 -0 0 0 0 0 0 0 0 0 0 0 0 0 0 0 0 0 0 0 0 0 0 0 0 0 0 0 0 0 0 0 0 0 0 0 0 0 0 0 0 0
0 -0 -0 -0 0 0 0 0 0 0 0 0 0 0 0 0 0 0 0 0 0 0 0 0 0 0 0 0 0 0 0 0 0 0 0 0 0 0 0 0 0 0 0 0
0 0 0 0 0 0 0 0 0 0 0 0 0 0 0 0 0 0 0 0 0 0 0 0 0 0 0 0 0 0 0 0 0 0 0 0 0 0 0 0 0 0 0 0
Wind_Speed_500mb
17 16 29 40 40 8 3 8 11 4 0 8 25 36 36 40 35 39 39 38 32 33 37 55 33 34 48 56 55 52 48 43 39 32 26 20 15 10 8 5 4 3 5 8
11 30 29 18 20 24 17 10 11 9 2 7 19 34 38 35 34 41 44 41 38 37 51 57 53 44 51 58 57 55 50 43 37 30 24 20 15 11 9 7 5 1 1 4
25 9 26 24 18 24 27 32 20 11 9 8 18 33 27 11 23 24 33 36 38 43 49 54 56 55 58 60 58 56 49 43 37 32 26 21 16 12 11 9 7 3 3 2
20 15 16 23 31 28 27 27 29 21 9 11 5 17 17 8 17 17 27 28 28 34 39 44 54 62 61 59 56 54 49 44 38 32 27 21 16 12 13 12 9 6 5 4
14 24 28 16 19 35 10 10 20 18 18 11 19 14 13 6 18 26 27 32 28 29 33 42 53 58 59 59 57 55 50 45 39 33 29 23 17 14 14 13 10 8 7 6
8 1 12 9 7 33 24 16 11 6 5 11 20 20 16 17 18 10 9 31 32 35 38 43 51 56 59 60 59 56 53 46 40 35 30 23 18 15 16 15 12 10 9 8
18 18 7 12 16 9 13 19 4 4 6 13 9 15 26 15 18 12 12 31 31 38 43 50 57 61 63 63 62 59 55 48 42 36 30 24 19 17 18 16 14 12 11 11
24 16 29 19 15 21 20 16 10 14 11 5 6 19 12 15 10 23 18 28 35 37 42 51 56 59 62 62 61 58 54 48 43 38 31 24 20 18 19 18 15 13 13 13
24 22 25 29 9 20 14 15 4 11 3 4 11 13 20 21 26 19 19 30 40 45 48 53 56 58 60 60 58 56 51 47 43 38 31 25 21 19 20 19 17 15 14 15
16 7 6 14 13 3 16 20 9 3 13 17 14 12 16 7 25 16 19 26 36 43 48 51 55 57 58 55 54 53 49 47 43 38 33 28 24 21 21 20 18 16 15 16
13 6 5 15 27 35 14 13 8 5 10 11 15 20 17 28 15 28 30 37 39 49 54 56 57 57 56 56 57 55 53 51 47 40 36 31 26 22 21 21 20 17 16 17
35 6 14 22 3 9 36 34 27 18 21 12 9 24 5 10 7 11 31 37 40 47 51 54 56 57 61 61 60 58 56 53 47 41 37 34 30 26 22 22 22 20 19 18
38 13 13 8 5 9 20 23 41 29 5 23 14 32 3 9 12 16 25 37 45 48 50 52 55 60 62 63 62 60 57 53 48 45 41 38 34 28 24 23 24 23 22 20
33 10 40 37 45 25 26 44 37 34 14 42 31 56 25 12 16 10 19 40 45 51 52 54 57 60 60 62 63 60 58 54 52 49 45 41 34 29 26 25 25 26 24 23
18 31 31 47 12 34 36 40 39 36 57 29 58 53 39 18 16 15 27 37 42 49 56 60 61 61 61 62 62 60 58 55 53 51 48 41 37 35 33 29 26 28 28 26
25 9 32 34 16 15 20 43 47 53 47 38 24 33 34 36 11 23 39 44 49 56 59 58 58 58 60 59 60 59 57 55 53 49 46 45 44 41 37 34 30 29 29 30
28 14 15 40 19 10 12 40 55 46 43 60 31 72 12 19 25 37 51 69 72 63 60 61 61 57 55 55 54 54 54 54 53 50 49 48 46 43 40 38 35 32 30 30
15 22 11 18 20 33 27 34 36 48 40 46 49 57 40 33 39 50 46 68 70 65 62 60 60 55 52 51 51 51 51 51 50 50 50 49 46 44 43 40 37 33 30 30
24 31 26 14 28 6 16 30 39 39 55 40 57 63 44 17 22 43 60 62 70 70 67 61 56 54 52 49 47 46 45 44 45 46 47 46 45 43 42 39 36 32 31 31
31 44 36 14 27 44 29 28 29 25 29 45 61 54 34 34 23 41 57 55 61 69 65 63 58 52 47 45 42 41 40 42 43 42 41 42 41 40 37 35 35 34 32 31
31 31 46 40 21 11 15 32 52 29 27 37 64 62 51 37 67 33 57 72 67 74 69 62 55 51 48 44 40 39 39 38 37 37 37 37 37 35 34 34 33 32 29 27
5 19 26 32 29 23 17 39 47 42 33 4 25 64 78 103 54 54 65 80 84 85 76 66 63 57 50 46 43 41 39 37 36 36 35 34 33 32 31 31 30 29 28 27
9 12 11 9 10 8 55 50 71 22 30 31 21 43 68 53 52 64 74 84 90 87 78 67 64 57 53 47 40 43 42 40 37 34 31 30 29 28 28 28 29 29 26 25
10 8 11 6 15 19 43 46 61 37 30 32 33 28 53 62 63 72 78 90 97 90 83 76 70 68 64 56 54 53 53 49 44 39 34 29 25 24 24 25 26 26 24 25
1 13 9 12 15 31 46 57 44 49 24 23 25 34 51 67 70 83 89 98 101 95 88 80 80 69 66 67 63 59 54 48 43 38 33 28 24 20 17 18 21 23 24 24
15 13 4 5 5 6 31 54 40 43 55 19 26 34 46 66 82 86 96 107 107 104 98 88 78 82 78 70 64 58 51 42 34 29 25 20 16 14 13 12 12 15 18 21
Wind_Direction_500mb
176 205 205 198 203 183 199 252 266 264 112 244 245 263 267 271 264 260 253 248 241 224 208 207 223 218 209 205 206 206 206 206 207 208 210 214 226 242 265 272 288 336 354 28
159 228 223 222 199 210 215 246 263 273 193 248 291 281 278 262 255 245 244 244 243 229 226 224 228 221 206 203 202 203 203 205 203 203 210 214 225 237 245 238 243 283 336 47
201 150 202 186 188 207 225 223 224 248 324 230 300 277 255 245 242 241 240 242 242 235 229 225 218 208 199 198 200 200 200 199 200 203 207 213 222 231 224 221 221 201 216 124
232 189 149 190 215 196 229 215 221 238 266 261 2 290 277 264 259 234 225 222 227 228 218 214 203 196 193 193 196 197 197 196 199 202 205 210 222 226 210 210 208 185 192 161
213 177 178 181 206 191 236 165 207 212 218 270 223 271 266 292 267 249 217 211 211 209 203 194 190 189 188 190 191 192 194 197 199 202 204 207 217 220 205 205 199 183 181 166
254 196 199 200 122 180 142 110 87 85 181 243 206 216 248 239 225 256 201 202 200 192 188 185 185 184 184 185 188 190 192 197 199 200 203 207 210 211 202 200 194 187 186 180
191 205 203 163 123 143 187 165 132 203 205 254 151 203 252 248 246 248 245 202 192 187 183 183 183 182 183 184 187 190 193 196 198 198 202 205 207 202 198 196 197 189 190 191
191 214 187 182 187 177 180 192 173 208 199 251 141 232 237 252 271 256 257 200 184 184 185 184 184 184 185 187 190 192 194 196 197 196 201 204 206 199 197 197 200 196 197 191
194 227 195 177 150 152 182 208 144 102 52 274 210 260 267 248 250 231 216 186 184 186 188 189 187 189 190 192 194 194 195 196 196 196 199 202 204 200 197 198 199 201 200 192
196 169 218 162 143 147 179 138 146 222 216 238 229 262 250 242 242 211 210 208 191 190 190 191 193 193 195 197 197 196 199 199 197 196 197 200 202 199 197 198 200 205 202 196
166 199 132 164 212 178 160 175 181 215 222 242 258 250 199 232 217 209 202 204 198 195 194 195 196 197 199 198 198 198 198 198 199 197 198 201 201 200 197 199 203 203 204 198
204 191 169 200 12 292 222 206 179 182 206 228 278 257 158 244 258 235 206 197 198 199 196 197 198 197 199 199 199 200 199 199 199 200 201 203 202 202 197 200 205 201 202 202
187 203 165 138 282 208 223 213 208 226 47 212 209 254 137 252 249 227 216 198 196 196 197 197 197 198 200 199 201 202 202 201 201 203 203 207 205 204 201 202 207 205 203 207
186 212 211 205 210 156 198 204 205 198 189 228 230 255 235 244 242 204 210 200 195 195 196 197 198 199 200 201 202 202 202 202 204 207 208 211 209 207 208 208 209 209 206 209
200 219 219 230 238 189 200 194 192 199 215 203 232 235 228 244 230 204 195 195 197 199 200 201 200 199 200 201 201 202 205 205 207 211 214 213 211 211 213 214 214 213 210 209
196 221 219 233 227 212 204 196 190 201 215 226 235 262 242 228 186 185 194 194 202 207 206 203 201 201 201 201 202 203 206 209 212 214 217 216 214 214 215 215 216 218 215 215
195 178 182 220 173 152 237 199 194 206 212 216 210 237 158 202 218 199 195 201 205 205 202 201 201 200 200 200 201 203 206 211 214 214 216 217 216 216 215 215 216 217 217 218
225 180 192 209 155 219 219 197 199 203 209 218 233 246 226 210 218 225 221 208 203 200 199 197 194 192 192 194 195 199 204 209 213 215 217 217 217 215 215 215 217 217 217 217
243 231 220 209 200 160 191 188 187 188 226 209 224 241 228 203 211 247 233 223 213 200 196 190 184 185 187 191 193 197 202 206 210 213 215 215 215 214 214 214 215 215 217 218
220 243 209 191 217 219 202 183 195 178 252 211 215 230 211 169 220 235 216 221 211 204 194 188 185 184 185 189 190 194 200 205 207 208 207 206 206 207 209 208 209 211 214 217
206 213 207 208 219 230 194 153 152 173 228 247 215 214 195 192 222 220 209 208 204 194 190 187 183 180 179 179 180 181 188 190 192 192 191 191 193 196 200 203 206 209 213 218
239 209 217 223 233 231 152 159 173 205 211 196 207 196 201 212 222 212 197 197 187 183 181 181 174 171 167 170 168 168 165 165 167 169 172 177 183 188 193 197 201 204 209 213
240 189 305 267 238 307 179 183 200 203 203 222 221 206 209 200 198 191 187 185 178 176 172 170 166 156 157 153 157 154 152 149 150 152 158 166 173 180 186 191 197 202 205 205
234 126 201 125 250 276 209 211 203 209 208 212 222 219 198 181 185 180 175 175 172 168 165 161 154 153 143 141 141 139 131 129 127 129 133 142 155 168 179 188 196 204 208 209
196 157 210 262 273 294 278 235 210 205 196 212 200 199 189 182 176 178 169 171 168 162 158 156 155 149 149 145 139 131 126 123 124 123 123 126 131 140 158 178 195 203 210 214
176 210 291 309 348 320 297 334 274 223 218 225 196 178 187 193 181 179 169 171 166 159 156 152 151 150 145 143 138 133 128 124 121 121 122 127 137 148 158 170 187 201 212 217
Wind_Speed_850mb
17 16 29 40 40 8 3 8 11 4 0 8 25 36 36 40 35 39 39 38 32 33 37 55 33 34 48 56 55 52 48 43 39 32 26 20 15 10 8 5 4 3 5 8
11 30 29 18 20 24 17 10 11 9 2 7 19 34 38 35 34 41 44 41 38 37 51 57 53 44 51 58 57 55 50 43 37 30 24 20 15 11 9 7 5 1 1 4
25 9 26 24 18 24 27 32 20 11 9 8 18 33 27 11 23 24 33 36 38 43 49 54 56 55 58 60 58 56 49 43 37 32 26 21 16 12 11 9 7 3 3 2
20 15 16 23 31 28 27 27 29 21 9 11 5 17 17 8 17 17 27 28 28 34 39 44 54 62 61 59 56 54 49 44 38 32 27 21 16 12 13 12 9 6 5 4
14 24 28 16 19 35 10 10 20 18 18 11 19 14 13 6 18 26 27 32 28 29 33 42 53 58 59 59 57 55 50 45 39 33 29 23 17 14 14 13 10 8 7 6
8 1 12 9 7 33 24 16 11 6 5 11 20 20 16 17 18 10 9 31 32 35 38 43 51 56 59 60 59 56 53 46 40 35 30 23 18 15 16 15 12 10 9 8
18 18 7 12 16 9 13 19 4 4 6 13 9 15 26 15 18 12 12 31 31 38 43 50 57 61 63 63 62 59 55 48 42 36 30 24 19 17 18 16 14 12 11 11
24 16 29 19 15 21 20 16 10 14 11 5 6 19 12 15 10 23 18 28 35 37 42 51 56 59 62 62 61 58 54 48 43 38 31 24 20 18 19 18 15 13 13 13
24 22 25 29 9 20 14 15 4 11 3 4 11 13 20 21 26 19 19 30 40 45 48 53 56 58 60 60 58 56 51 47 43 38 31 25 21 19 20 19 17 15 14 15
16 7 6 14 13 3 16 20 9 3 13 17 14 12 16 7 25 16 19 26 36 43 48 51 55 57 58 55 54 53 49 47 43 38 33 28 24 21 21 20 18 16 15 16
13 6 5 15 27 35 14 13 8 5 10 11 15 20 17 28 15 28 30 37 39 49 54 56 57 57 56 56 57 55 53 51 47 40 36 31 26 22 21 21 20 17 16 17
35 6 14 22 3 9 36 34 27 18 21 12 9 24 5 10 7 11 31 37 40 47 51 54 56 57 61 61 60 58 56 53 47 41 37 34 30 26 22 22 22 20 19 18
38 13 13 8 5 9 20 23 41 29 5 23 14 32 3 9 12 16 25 37 45 48 50 52 55 60 62 63 62 60 57 53 48 45 41 38 34 28 24 23 24 23 22 20
33 10 40 37 45 25 26 44 37 34 14 42 31 56 25 12 16 10 19 40 45 51 52 54 57 60 60 62 63 60 58 54 52 49 45 41 34 29 26 25 25 26 24 23
18 31 31 47 12 34 36 40 39 36 57 29 58 53 39 18 16 15 27 37 42 49 56 60 61 61 61 62 62 60 58 55 53 51 48 41 37 35 33 29 26 28 28 26
25 9 32 34 16 15 20 43 47 53 47 38 24 33 34 36 11 23 39 44 49 56 59 58 58 58 60 59 60 59 57 55 53 49 46 45 44 41 37 34 30 29 29 30
28 14 15 40 19 10 12 40 55 46 43 60 31 72 12 19 25 37 51 69 72 63 60 61 61 57 55 55 54 54 54 54 53 50 49 48 46 43 40 38 35 32 30 30
15 22 11 18 20 33 27 34 36 48 40 46 49 57 40 33 39 50 46 68 70 65 62 60 60 55 52 51 51 51 51 51 50 50 50 49 46 44 43 40 37 33 30 30
24 31 26 14 28 6 16 30 39 39 55 40 57 63 44 17 22 43 60 62 70 70 67 61 56 54 52 49 47 46 45 44 45 46 47 46 45 43 42 39 36 32 31 31
31 44 36 14 27 44 29 28 29 25 29 45 61 54 34 34 23 41 57 55 61 69 65 63 58 52 47 45 42 41 40 42 43 42 41 42 41 40 37 35 35 34 32 31
31 31 46 40 21 11 15 32 52 29 27 37 64 62 51 37 67 33 57 72 67 74 69 62 55 51 48 44 40 39 39 38 37 37 37 37 37 35 34 34 33 32 29 27
5 19 26 32 29 23 17 39 47 42 33 4 25 64 78 103 54 54 65 80 84 85 76 66 63 57 50 46 43 41 39 37 36 36 35 34 33 32 31 31 30 29 28 27
9 12 11 9 10 8 55 50 71 22 30 31 21 43 68 53 52 64 74 84 90 87 78 67 64 57 53 47 40 43 42 40 37 34 31 30 29 28 28 28 29 29 26 25
10 8 11 6 15 19 43 46 61 37 30 32 33 28 53 62 63 72 78 90 97 90 83 76 70 68 64 56 54 53 53 49 44 39 34 29 25 24 24 25 26 26 24 25
1 13 9 12 15 31 46 57 44 49 24 23 25 34 51 67 70 83 89 98 101 95 88 80 80 69 66 67 63 59 54 48 43 38 33 28 24 20 17 18 21 23 24 24
15 13 4 5 5 6 31 54 40 43 55 19 26 34 46 66 82 86 96 107 107 104 98 88 78 82 78 70 64 58 51 42 34 29 25 20 16 14 13 12 12 15 18 21
Wind_Direction_850mb
176 205 205 198 203 183 199 252 266 264 112 244 245 263 267 271 264 260 253 248 241 224 208 207 223 218 209 205 206 206 206 206 207 208 210 214 226 242 265 272 288 336 354 28
159 228 223 222 199 210 215 246 263 273 193 248 291 281 278 262 255 245 244 244 243 229 226 224 228 221 206 203 202 203 203 205 203 203 210 214 225 237 245 238 243 283 336 47
201 150 202 186 188 207 225 223 224 248 324 230 300 277 255 245 242 241 240 242 242 235 229 225 218 208 199 198 200 200 200 199 200 203 207 213 222 231 224 221 221 201 216 124
232 189 149 190 215 196 229 215 221 238 266 261 2 290 277 264 259 234 225 222 227 228 218 214 203 196 193 193 196 197 197 196 199 202 205 210 222 226 210 210 208 185 192 161
213 177 178 181 206 191 236 165 207 212 218 270 223 271 266 292 267 249 217 211 211 209 203 194 190 189 188 190 191 192 194 197 199 202 204 207 217 220 205 205 199 183 181 166
254 196 199 200 122 180 142 110 87 85 181 243 206 216 248 239 225 256 201 202 200 192 188 185 185 184 184 185 188 190 192 197 199 200 203 207 210 211 202 200 194 187 186 180
191 205 203 163 123 143 187 165 132 203 205 254 151 203 252 248 246 248 245 202 192 187 183 183 183 182 183 184 187 190 193 196 198 198 202 205 207 202 198 196 197 189 190 191
191 214 187 182 187 177 180 192 173 208 199 251 141 232 237 252 271 256 257 200 184 184 185 184 184 184 185 187 190 192 194 196 197 196 201 204 206 199 197 197 200 196 197 191
194 227 195 177 150 152 182 208 144 102 52 274 210 260 267 248 250 231 216 186 184 186 188 189 187 189 190 192 194 194 195 196 196 196 199 202 204 200 197 198 199 201 200 192
196 169 218 162 143 147 179 138 146 222 216 238 229 262 250 242 242 211 210 208 191 190 190 191 193 193 195 197 197 196 199 199 197 196 197 200 202 199 197 198 200 205 202 196
166 199 132 164 212 178 160 175 181 215 222 242 258 250 199 232 217 209 202 204 198 195 194 195 196 197 199 198 198 198 198 198 199 197 198 201 201 200 197 199 203 203 204 198
204 191 169 200 12 292 222 206 179 182 206 228 278 257 158 244 258 235 206 197 198 199 196 197 198 197 199 199 199 200 199 199 199 200 201 203 202 202 197 200 205 201 202 202
187 203 165 138 282 208 223 213 208 226 47 212 209 254 137 252 249 227 216 198 196 196 197 197 197 198 200 199 201 202 202 201 201 203 203 207 205 204 201 202 207 205 203 207
186 212 211 205 210 156 198 204 205 198 189 228 230 255 235 244 242 204 210 200 195 195 196 197 198 199 200 201 202 202 202 202 204 207 208 211 209 207 208 208 209 209 206 209
200 219 219 230 238 189 200 194 192 199 215 203 232 235 228 244 230 204 195 195 197 199 200 201 200 199 200 201 201 202 205 205 207 211 214 213 211 211 213 214 214 213 210 209
196 221 219 233 227 212 204 196 190 201 215 226 235 262 242 228 186 185 194 194 202 207 206 203 201 201 201 201 202 203 206 209 212 214 217 216 214 214 215 215 216 218 215 215
195 178 182 220 173 152 237 199 194 206 212 216 210 237 158 202 218 199 195 201 205 205 202 201 201 200 200 200 201 203 206 211 214 214 216 217 216 216 215 215 216 217 217 218
225 180 192 209 155 219 219 197 199 203 209 218 233 246 226 210 218 225 221 208 203 200 199 197 194 192 192 194 195 199 204 209 213 215 217 217 217 215 215 215 217 217 217 217
243 231 220 209 200 160 191 188 187 188 226 209 224 241 228 203 211 247 233 223 213 200 196 190 184 185 187 191 193 197 202 206 210 213 215 215 215 214 214 214 215 215 217 218
220 243 209 191 217 219 202 183 195 178 252 211 215 230 211 169 220 235 216 221 211 204 194 188 185 184 185 189 190 194 200 205 207 208 207 206 206 207 209 208 209 211 214 217
206 213 207 208 219 230 194 153 152 173 228 247 215 214 195 192 222 220 209 208 204 194 190 187 183 180 179 179 180 181 188 190 192 192 191 191 193 196 200 203 206 209 213 218
239 209 217 223 233 231 152 159 173 205 211 196 207 196 201 212 222 212 197 197 187 183 181 181 174 171 167 170 168 168 165 165 167 169 172 177 183 188 193 197 201 204 209 213
240 189 305 267 238 307 179 183 200 203 203 222 221 206 209 200 198 191 187 185 178 176 172 170 166 156 157 153 157 154 152 149 150 152 158 166 173 180 186 191 197 202 205 205
234 126 201 125 250 276 209 211 203 209 208 212 222 219 198 181 185 180 175 175 172 168 165 161 154 153 143 141 141 139 131 129 127 129 133 142 155 168 179 188 196 204 208 209
196 157 210 262 273 294 278 235 210 205 196 212 200 199 189 182 176 178 169 171 168 162 158 156 155 149 149 145 139 131 126 123 124 123 123 126 131 140 158 178 195 203 210 214
176 210 291 309 348 320 297 334 274 223 218 225 196 178 187 193 181 179 169 171 166 159 156 152 151 150 145 143 138 133 128 124 121 121 122 127 137 148 158 170 187 201 212 217